Miscellaneous Local Product
Issued by NWS Hastings, NE

Home | Current Version | Previous Version | Text Only | Print | Product List | Glossary Off
Versions: 1 2 3 4 5 6 7 8 9 10 11 12 13 14 15 16 17 18 19 20 21 22 23 24 25 26 27 28 29 30 31 32 33 34 35 36 37 38 39 40 41 42 43 44 45 46 47 48 49 50

339
AXUS43 KGID 240902
MISGRI

GID CWA HOURLY WEATHER ROUNDUP
NATIONAL WEATHER SERVICE HASTINGS NE
400 AM CDT TUE MAY 24 2016

NOTE: "FAIR" INDICATES FEW OR NO CLOUDS BELOW 12,000 FEET WITH NO
SIGNIFICANT WEATHER AND/OR OBSTRUCTIONS TO VISIBILITY.

...SOUTH CENTRAL NEBRASKA...

CITY           SKY/WX    TMP DP  RH WIND       PRES   REMARKS
GRAND ISLAND   CLOUDY    60  58  92 NW6       29.84S
HASTINGS       CLOUDY    61  59  93 S7        29.83S
KEARNEY        CLOUDY    61  57  88 CALM      29.85R
ORD            FOG       51  51 100 S3        29.82S VSB 1
YORK           CLOUDY    59  59 100 S3        29.83S
AURORA         CLOUDY    61  60  97 S3        29.83R
LEXINGTON      CLOUDY    54  50  87 NW3       29.84F
HOLDREGE       CLOUDY    63  61  93 CALM      29.86R
HEBRON         CLOUDY    62  58  86 CALM      29.84R

...NEBRASKA PANHANDLE...

CITY           SKY/WX    TMP DP  RH WIND       PRES   REMARKS
CHADRON        CLEAR     47  38  71 CALM      29.85S
ALLIANCE       CLEAR     37  36  96 W3        29.88F
SCOTTSBLUFF    CLEAR     42  38  85 N5        29.89F
SIDNEY         CLOUDY    41  38  89 NW10      29.89F

...WESTERN AND NORTH CENTRAL NEBRASKA...

CITY           SKY/WX    TMP DP  RH WIND       PRES   REMARKS
VALENTINE      CLEAR     48  42  80 W9        29.81S
AINSWORTH      CLEAR     53  44  72 W7        29.81R
ONEILL         CLEAR     55  48  77 SW6       29.81R
BROKEN BOW     CLOUDY    48  44  86 CALM      29.85R
IMPERIAL       LGT RAIN  54  49  83 S14       29.88F
NORTH PLATTE   CLOUDY    50  47  89 CALM      29.86S
MCCOOK         CLOUDY    55  47  74 NE12      29.82F

...EASTERN NEBRASKA...

CITY           SKY/WX    TMP DP  RH WIND       PRES   REMARKS
NORFOLK        CLOUDY    57  55  93 SE3       29.82R
SO SIOUX CITY  CLEAR     63  60  90 S8        29.84R
TEKAMAH        CLOUDY    61  59  93 S6        29.83R
COLUMBUS       CLOUDY    55  48  76 CALM      29.83F
ALBION         CLOUDY    57  55  92 SE6       29.83S
OMAHA EPPLEY   CLOUDY    60  58  92 E3        29.83F
MILLARD        MOCLDY    59  58  96 CALM      29.84F
LINCOLN        CLOUDY    60  58  92 NE3       29.81F
NEBRASKA CITY  CLOUDY    64  64 100 CALM      29.83F
BEATRICE       CLOUDY    64  61  91 SW5       29.80S
FALLS CITY     CLOUDY    66  61  84 S12       29.82F

...NORTHERN KANSAS...

CITY           SKY/WX    TMP DP  RH WIND       PRES   REMARKS
GOODLAND       CLOUDY    54  46  74 N9        29.84R
HILL CITY      TSTM      60  58  92 SE13      29.82R FOG
NORTON         LGT RAIN  61  54  77 N6        29.77F
PHILLIPSBURG   CLOUDY    63  63 100 NE14      29.75F
SMITH CENTER   CLOUDY    61  61 100 E3        29.81F
BELOIT         CLOUDY    61  57  88 E7        29.82F
HAYS           CLOUDY    64  52  63 E15       29.77F THUNDER
RUSSELL        CLOUDY    60  58  92 E13       29.79F
CONCORDIA      LGT RAIN  62  58  86 SE15      29.84F
SALINA         CLOUDY    69  67  93 N18       29.88R
TOPEKA         PTCLDY    61  59  93 SE5       29.86S



USA.gov is the U.S. government's official web portal to all federal, state and local government web resources and services.